Previsão horária em Celina

Hoje, 3 Agosto, Terça-feira

Tempo Temperatura Precipitação Vento Pressão Humidade
00:00 +15°C° 0 mm 2 m/s 747 mmHg 77%
01:00 +15°C° 0 mm 2 m/s 747 mmHg 79%
02:00 +15°C° 0 mm 2 m/s 747 mmHg 80%
03:00 +14°C° 0 mm 2 m/s 747 mmHg 82%
04:00 +14°C° 0 mm 2 m/s 747 mmHg 84%
05:00 +15°C° 0 mm 2 m/s 748 mmHg 80%
06:00 +16°C° 0 mm 1 m/s 748 mmHg 76%
07:00 +19°C° 0 mm 1 m/s 748 mmHg 71%
08:00 +20°C° 0 mm 1 m/s 748 mmHg 65%
09:00 +22°C° 0 mm 1 m/s 748 mmHg 59%
10:00 +23°C° 0 mm 1 m/s 748 mmHg 53%
11:00 +24°C° 0.1 mm 2 m/s 748 mmHg 50%
12:00 +24°C° 0.1 mm 2 m/s 747 mmHg 48%
13:00 +25°C° 0 mm 3 m/s 747 mmHg 45%
14:00 +25°C° 0 mm 2 m/s 747 mmHg 47%
15:00 +24°C° 0 mm 2 m/s 747 mmHg 49%
16:00 +24°C° 0 mm 2 m/s 746 mmHg 52%
17:00 +23°C° 0 mm 1 m/s 746 mmHg 56%
18:00 +22°C° 0 mm 1 m/s 746 mmHg 59%
19:00 +21°C° 0 mm 1 m/s 746 mmHg 63%
20:00 +20°C° 0.4 mm 1 m/s 746 mmHg 69%
21:00 +19°C° 0.4 mm 1 m/s 747 mmHg 75%
22:00 +18°C° 0.4 mm 1 m/s 747 mmHg 81%
23:00 +16°C° 0.3 mm 1 m/s 747 mmHg 83%

Amanhã, 4 Agosto, Quarta-feira

Tempo Temperatura Precipitação Vento Pressão Humidade
00:00 +16°C° 0.3 mm 1 m/s 747 mmHg 84%
01:00 +16°C° 0.3 mm 1 m/s 747 mmHg 86%
02:00 +16°C° 0.2 mm 1 m/s 747 mmHg 87%
03:00 +16°C° 0.2 mm 2 m/s 747 mmHg 88%
04:00 +16°C° 0.2 mm 2 m/s 747 mmHg 89%
05:00 +16°C° 0.2 mm 2 m/s 747 mmHg 89%
06:00 +16°C° 0.2 mm 3 m/s 747 mmHg 88%
07:00 +17°C° 0.2 mm 3 m/s 747 mmHg 88%
08:00 +17°C° 0.4 mm 3 m/s 747 mmHg 88%
09:00 +17°C° 0.4 mm 2 m/s 748 mmHg 88%
10:00 +16°C° 0.4 mm 2 m/s 748 mmHg 88%
11:00 +17°C° 0 mm 2 m/s 748 mmHg 84%
12:00 +18°C° 0 mm 3 m/s 747 mmHg 81%
13:00 +18°C° 0 mm 3 m/s 747 mmHg 77%
14:00 +19°C° 0.1 mm 3 m/s 747 mmHg 72%
15:00 +20°C° 0.1 mm 2 m/s 747 mmHg 67%
16:00 +21°C° 0.1 mm 2 m/s 746 mmHg 62%
17:00 +20°C° 0.2 mm 2 m/s 746 mmHg 67%
18:00 +19°C° 0.2 mm 2 m/s 746 mmHg 71%
19:00 +20°C° 0.2 mm 1 m/s 746 mmHg 76%
20:00 +19°C° 0 mm 1 m/s 746 mmHg 78%
21:00 +18°C° 0 mm 1 m/s 746 mmHg 81%
22:00 +16°C° 0 mm 1 m/s 746 mmHg 84%
23:00 +16°C° 0 mm 1 m/s 746 mmHg 85%

Depois de amanhã, 5 Agosto, Quinta-feira

Tempo Temperatura Precipitação Vento Pressão Humidade
00:00 +14°C° 0 mm 0 m/s 746 mmHg 86%
01:00 +14°C° 0 mm 0 m/s 745 mmHg 87%
02:00 +14°C° 0 mm 0 m/s 745 mmHg 88%
03:00 +14°C° 0 mm 0 m/s 745 mmHg 88%
04:00 +15°C° 0 mm 1 m/s 745 mmHg 89%
05:00 +16°C° 0 mm 1 m/s 745 mmHg 87%
06:00 +16°C° 0 mm 1 m/s 745 mmHg 84%
07:00 +18°C° 0 mm 1 m/s 745 mmHg 81%
08:00 +19°C° 0.1 mm 1 m/s 745 mmHg 80%
09:00 +18°C° 0.1 mm 2 m/s 744 mmHg 79%
10:00 +19°C° 0.1 mm 2 m/s 744 mmHg 78%
11:00 +18°C° 0.8 mm 2 m/s 744 mmHg 82%
12:00 +18°C° 0.8 mm 2 m/s 744 mmHg 86%
13:00 +17°C° 0.8 mm 2 m/s 744 mmHg 90%
14:00 +17°C° 0.5 mm 2 m/s 744 mmHg 91%
15:00 +17°C° 0.5 mm 2 m/s 744 mmHg 92%
16:00 +16°C° 0.5 mm 1 m/s 744 mmHg 93%
17:00 +16°C° 0 mm 1 m/s 743 mmHg 93%
18:00 +16°C° 0 mm 1 m/s 743 mmHg 93%
19:00 +16°C° 0 mm 1 m/s 743 mmHg 93%
20:00 +16°C° 0 mm 1 m/s 743 mmHg 93%
21:00 +16°C° 0 mm 1 m/s 743 mmHg 93%
22:00 +16°C° 0 mm 1 m/s 743 mmHg 92%
23:00 +16°C° 0 mm 1 m/s 743 mmHg 92%

6 Agosto, Sexta-feira

Tempo Temperatura Precipitação Vento Pressão Humidade
00:00 +15°C° 0 mm 1 m/s 742 mmHg 93%
01:00 +15°C° 0 mm 2 m/s 742 mmHg 93%
02:00 +15°C° 0.1 mm 2 m/s 742 mmHg 94%
03:00 +15°C° 0.1 mm 2 m/s 742 mmHg 94%
04:00 +15°C° 0.1 mm 1 m/s 742 mmHg 95%
05:00 +15°C° 0.2 mm 2 m/s 742 mmHg 94%
06:00 +15°C° 0.2 mm 2 m/s 742 mmHg 94%
07:00 +16°C° 0.2 mm 2 m/s 742 mmHg 94%
08:00 +16°C° 0.2 mm 2 m/s 743 mmHg 92%
09:00 +17°C° 0.2 mm 2 m/s 743 mmHg 90%
10:00 +17°C° 0.2 mm 2 m/s 743 mmHg 87%
11:00 +18°C° 0.1 mm 2 m/s 743 mmHg 81%
12:00 +20°C° 0.1 mm 2 m/s 743 mmHg 75%
13:00 +21°C° 0.1 mm 2 m/s 743 mmHg 68%
14:00 +21°C° 0.3 mm 2 m/s 743 mmHg 66%
15:00 +21°C° 0.3 mm 2 m/s 743 mmHg 63%
16:00 +23°C° 0.3 mm 2 m/s 743 mmHg 61%
17:00 +21°C° 0 mm 2 m/s 743 mmHg 65%
18:00 +21°C° 0 mm 1 m/s 743 mmHg 70%
19:00 +20°C° 0 mm 1 m/s 743 mmHg 74%
20:00 +19°C° 0 mm 1 m/s 743 mmHg 77%
21:00 +18°C° 0 mm 1 m/s 744 mmHg 80%
22:00 +16°C° 0 mm 1 m/s 744 mmHg 83%
23:00 +16°C° 0 mm 1 m/s 744 mmHg 84%

7 Agosto, Sábado

Tempo Temperatura Precipitação Vento Pressão Humidade
00:00 +16°C° 0 mm 1 m/s 744 mmHg 86%
01:00 +15°C° 0 mm 1 m/s 744 mmHg 87%
02:00 +15°C° 0 mm 1 m/s 744 mmHg 88%
03:00 +15°C° 0 mm 1 m/s 744 mmHg 89%
04:00 +15°C° 0 mm 1 m/s 744 mmHg 90%
05:00 +16°C° 0 mm 1 m/s 744 mmHg 85%
06:00 +18°C° 0 mm 1 m/s 745 mmHg 80%
07:00 +20°C° 0 mm 1 m/s 745 mmHg 75%
08:00 +21°C° 0 mm 1 m/s 745 mmHg 68%
09:00 +23°C° 0 mm 1 m/s 745 mmHg 62%
10:00 +25°C° 0 mm 1 m/s 745 mmHg 55%
11:00 +26°C° 0 mm 2 m/s 745 mmHg 51%
12:00 +27°C° 0 mm 2 m/s 744 mmHg 47%
13:00 +28°C° 0 mm 2 m/s 744 mmHg 44%
14:00 +28°C° 0 mm 2 m/s 744 mmHg 42%
15:00 +28°C° 0 mm 2 m/s 744 mmHg 41%
16:00 +29°C° 0 mm 2 m/s 743 mmHg 40%
17:00 +28°C° 0 mm 2 m/s 743 mmHg 45%
18:00 +26°C° 0 mm 2 m/s 744 mmHg 50%
19:00 +25°C° 0 mm 2 m/s 744 mmHg 56%
20:00 +24°C° 0 mm 2 m/s 744 mmHg 59%
21:00 +23°C° 0 mm 2 m/s 743 mmHg 62%
22:00 +21°C° 0 mm 3 m/s 743 mmHg 65%
23:00 +20°C° 0 mm 3 m/s 744 mmHg 67%

8 Agosto, Domingo

Tempo Temperatura Precipitação Vento Pressão Humidade
00:00 +20°C° 0 mm 3 m/s 744 mmHg 70%
01:00 +19°C° 0 mm 2 m/s 744 mmHg 72%
02:00 +19°C° 0.1 mm 2 m/s 744 mmHg 75%
03:00 +19°C° 0.1 mm 2 m/s 744 mmHg 79%
04:00 +19°C° 0.1 mm 2 m/s 744 mmHg 82%
05:00 +19°C° 0.1 mm 3 m/s 744 mmHg 83%
06:00 +19°C° 0.1 mm 4 m/s 745 mmHg 85%
07:00 +19°C° 0.1 mm 5 m/s 746 mmHg 86%
08:00 +20°C° 0 mm 5 m/s 746 mmHg 82%
09:00 +21°C° 0 mm 5 m/s 747 mmHg 78%
10:00 +21°C° 0 mm 5 m/s 747 mmHg 73%
11:00 +23°C° 0 mm 5 m/s 747 mmHg 66%
12:00 +25°C° 0 mm 4 m/s 747 mmHg 59%
13:00 +26°C° 0 mm 4 m/s 748 mmHg 52%
14:00 +27°C° 0 mm 3 m/s 748 mmHg 49%
15:00 +27°C° 0 mm 3 m/s 748 mmHg 46%
16:00 +27°C° 0 mm 2 m/s 748 mmHg 43%
17:00 +26°C° 0 mm 2 m/s 748 mmHg 48%
18:00 +25°C° 0 mm 2 m/s 748 mmHg 52%
19:00 +24°C° 0 mm 1 m/s 748 mmHg 57%
20:00 +23°C° 0 mm 1 m/s 749 mmHg 57%
21:00 +23°C° 0 mm 1 m/s 749 mmHg 58%
22:00 +22°C° 0 mm 1 m/s 749 mmHg 59%
23:00 +20°C° 0.1 mm 2 m/s 750 mmHg 65%
Mostrar mais

Necessitamos do seu Consentimento

A Meteoprog e os seus Fornecedores de Serviços podem armazenar e aceder a dados pessoais como cookies, identificadores do dispositivo ou outras tecnologias semelhantes existentes no seu dispositivo e processar estes dados para personalizar conteúdos e anúncios, assim como funcionalidades nas redes sociais e análise de tráfego.

  • Armazenar e/ou aceder a informações no seu dispositivo

    Os cookies, identificadores do dispositivo ou outras informações podem ser armazenados ou acedidos no seu dispositivo, para os fins acima indicados.

  • Anúncios e conteúdos personalizados, medição de anúncios e conteúdos, dados sobre o público-alvo e desenvolvimento de produtos

    Os anúncios e os conteúdos podem ser personalizados com base num perfil. Podem ser adicionados dados adicionais para uma maior personalização dos anúncios e dos conteúdos. A eficácia dos anúncios e dos conteúdos pode ser medida. Podem ser obtidas informações sobre o público que visualizou os anúncios e os conteúdos. Estes dados podem ser usados para desenvolver ou melhorar sistemas, softwares ou a experiência do utilizador.

Ao clicar em "Eu concordo”, permitirá o uso de cookies, identificadores do dispositivo e web beacons mencionados ou outras tecnologias semelhantes. As configurações do navegador do seu dispositivo podem ser alteradas.

Para certos fins, podem ser invocados interesses legítimos ao invés de consentimento. Pode ler mais informação sobre este assunto na nossa Política de Privacidade e Cookies.